| time (UTC) | temp C | wind direction | speed KPH | gust KPH | rain 1hr cm | rain 24hr cm | rain mn cm | humidity % | barometer mb |
| 20260503050048 | 18 | 312 | 11.3 | 32.2 | 0.00 | 0.00 | 0.00 | 39 | 1014.7 |
| 20260503044546 | 19 | 312 | 14.5 | 25.7 | 0.00 | 0.00 | 0.00 | 38 | 1014.5 |
| 20260503043051 | 20 | 292 | 12.9 | 29.0 | 0.00 | 0.00 | 0.00 | 36 | 1014.6 |
| 20260503041543 | 20 | 300 | 9.7 | 22.5 | 0.00 | 0.00 | 0.00 | 36 | 1014.3 |
| 20260503040057 | 20 | 313 | 9.7 | 17.7 | 0.00 | 0.00 | 0.00 | 34 | 1014.6 |
| 20260503034548 | 20 | 263 | 11.3 | 22.5 | 0.00 | 0.00 | 0.00 | 34 | 1014.1 |
| 20260503033046 | 20 | 257 | 12.9 | 27.4 | 0.00 | 0.00 | 0.00 | 36 | 1013.8 |
| 20260503031546 | 20 | 248 | 9.7 | 22.5 | 0.00 | 0.00 | 0.00 | 35 | 1013.6 |
| 20260503030043 | 19 | 217 | 14.5 | 20.9 | 0.00 | 0.00 | 0.00 | 38 | 1013.6 |
| 20260503024541 | 20 | 254 | 6.4 | 20.9 | 0.00 | 0.00 | 0.00 | 35 | 1013.4 |
| 20260503023057 | 20 | 300 | 9.7 | 25.7 | 0.00 | 0.00 | 0.00 | 36 | 1013.3 |
| 20260503021554 | 20 | 322 | 14.5 | 29.0 | 0.00 | 0.00 | 0.00 | 36 | 1013.0 |
| 20260503020055 | 21 | 315 | 12.9 | 24.1 | 0.00 | 0.00 | 0.00 | 33 | 1013.0 |
| 20260503014544 | 21 | 334 | 6.4 | 22.5 | 0.00 | 0.00 | 0.00 | 32 | 1013.3 |
| 20260503013051 | 21 | 281 | 16.1 | 24.1 | 0.00 | 0.00 | 0.00 | 32 | 1013.3 |
| 20260503011539 | 22 | 239 | 9.7 | 19.3 | 0.00 | 0.00 | 0.00 | 31 | 1013.2 |
| 20260503010048 | 22 | 253 | 3.2 | 8.0 | 0.00 | 0.00 | 0.00 | 28 | 1013.2 |
| 20260503004556 | 22 | 232 | 9.7 | 17.7 | 0.00 | 0.00 | 0.00 | 27 | 1013.2 |
| 20260503003110 | 23 | 234 | 14.5 | 19.3 | 0.00 | 0.00 | 0.00 | 27 | 1013.2 |
| 20260503001600 | 23 | 220 | 6.4 | 16.1 | 0.00 | 0.00 | 0.00 | 27 | 1013.2 |
| 20260503000047 | 23 | 0 | 1.6 | 19.3 | 0.00 | 0.00 | 0.00 | 26 | 1013.1 |
| 20260502234545 | 23 | 227 | 14.5 | 25.7 | 0.00 | 0.00 | 0.00 | 26 | 1013.2 |
| 20260502233044 | 23 | 155 | 11.3 | 24.1 | 0.00 | 0.00 | 0.00 | 26 | 1013.4 |
| 20260502231541 | 23 | 216 | 9.7 | 29.0 | 0.00 | 0.00 | 0.00 | 26 | 1013.4 |
| 20260502230051 | 23 | 174 | 16.1 | 37.0 | 0.00 | 0.00 | 0.00 | 26 | 1013.7 |
| 20260502224549 | 23 | 214 | 8.0 | 37.0 | 0.00 | 0.00 | 0.00 | 25 | 1013.6 |
| 20260502223046 | 23 | 236 | 12.9 | 33.8 | 0.00 | 0.00 | 0.00 | 25 | 1014.0 |
| 20260502221546 | 24 | 323 | 4.8 | 16.1 | 0.00 | 0.00 | 0.00 | 24 | 1013.8 |
| 20260502220049 | 24 | 25 | 6.4 | 14.5 | 0.00 | 0.00 | 0.00 | 24 | 1014.0 |
| 20260502214546 | 25 | 331 | 4.8 | 16.1 | 0.00 | 0.00 | 0.00 | 23 | 1014.0 |
| 20260502213100 | 25 | 309 | 12.9 | 22.5 | 0.00 | 0.00 | 0.00 | 23 | 1014.0 |
| 20260502211543 | 25 | 285 | 9.7 | 17.7 | 0.00 | 0.00 | 0.00 | 23 | 1014.3 |
| 20260502210051 | 25 | 5 | 8.0 | 19.3 | 0.00 | 0.00 | 0.00 | 23 | 1014.4 |
| 20260502204547 | 26 | 159 | 3.2 | 14.5 | 0.00 | 0.00 | 0.00 | 23 | 1014.7 |
| 20260502203050 | 25 | 329 | 4.8 | 14.5 | 0.00 | 0.00 | 0.00 | 23 | 1014.9 |
| 20260502201544 | 24 | 312 | 4.8 | 19.3 | 0.00 | 0.00 | 0.00 | 23 | 1015.1 |
| 20260502200107 | 25 | 170 | 6.4 | 12.9 | 0.00 | 0.00 | 0.00 | 23 | 1015.2 |
| 20260502194603 | 24 | 159 | 6.4 | 17.7 | 0.00 | 0.00 | 0.00 | 24 | 1015.3 |
| 20260502193047 | 24 | 141 | 3.2 | 17.7 | 0.00 | 0.00 | 0.00 | 23 | 1015.6 |
| 20260502191551 | 24 | 0 | 9.7 | 20.9 | 0.00 | 0.00 | 0.00 | 23 | 1015.8 |
| 20260502190045 | 23 | 114 | 6.4 | 17.7 | 0.00 | 0.00 | 0.00 | 22 | 1016.0 |
| 20260502184540 | 22 | 146 | 11.3 | 17.7 | 0.00 | 0.00 | 0.00 | 23 | 1016.3 |
| 20260502183052 | 22 | 102 | 8.0 | 16.1 | 0.00 | 0.00 | 0.00 | 22 | 1016.7 |
| 20260502181548 | 22 | 173 | 4.8 | 14.5 | 0.00 | 0.00 | 0.00 | 22 | 1016.7 |
| 20260502163051 | 19 | 145 | 6.4 | 12.9 | 0.00 | 0.00 | 0.00 | 19 | 1016.8 |
| 20260502161549 | 18 | 154 | 4.8 | 9.7 | 0.00 | 0.00 | 0.00 | 27 | 1016.8 |
| 20260502151559 | 15 | 0 | 0.0 | 3.2 | 0.00 | 0.00 | 0.00 | 38 | 1016.6 |
| 20260502150118 | 13 | 360 | 0.0 | 1.6 | 0.00 | 0.00 | 0.00 | 41 | 1016.6 |
| 20260502123045 | 6 | 355 | 3.2 | 6.4 | 0.00 | 0.00 | 0.00 | 48 | 1015.7 |
| 20260502121557 | 5 | 282 | 3.2 | 6.4 | 0.00 | 0.00 | 0.00 | 51 | 1015.6 |
| 20260502120110 | 5 | 304 | 1.6 | 4.8 | 0.00 | 0.00 | 0.00 | 48 | 1015.6 |
| 20260502114548 | 5 | 0 | 0.0 | 4.8 | 0.00 | 0.00 | 0.00 | 48 | 1015.6 |
| 20260502113109 | 5 | 296 | 4.8 | 14.5 | 0.00 | 0.00 | 0.00 | 48 | 1015.7 |
| 20260502111548 | 5 | 301 | 3.2 | 8.0 | 0.00 | 0.00 | 0.00 | 48 | 1015.6 |
| 20260502110057 | 5 | 0 | 0.0 | 4.8 | 0.00 | 0.00 | 0.00 | 50 | 1015.5 |
| 20260502104549 | 5 | 197 | 0.0 | 1.6 | 0.00 | 0.00 | 0.00 | 48 | 1015.6 |
| 20260502103108 | 6 | 197 | 1.6 | 3.2 | 0.00 | 0.00 | 0.00 | 47 | 1015.5 |
| 20260502101549 | 6 | 0 | 0.0 | 3.2 | 0.00 | 0.00 | 0.00 | 46 | 1015.5 |
| 20260502070050 | 10 | 0 | 0.0 | 3.2 | 0.00 | 0.00 | 0.00 | 37 | 1016.5 |
| 20260502064548 | 11 | 332 | 1.6 | 6.4 | 0.00 | 0.00 | 0.00 | 37 | 1016.2 |
| 20260502063104 | 10 | 303 | 3.2 | 4.8 | 0.00 | 0.00 | 0.00 | 44 | 1016.3 |
| 20260502061550 | 11 | 272 | 1.6 | 4.8 | 0.00 | 0.00 | 0.00 | 38 | 1016.2 |
| 20260502060042 | 11 | 0 | 0.0 | 1.6 | 0.00 | 0.00 | 0.00 | 48 | 1016.4 |
| 20260502054554 | 11 | 272 | 0.0 | 3.2 | 0.00 | 0.00 | 0.00 | 43 | 1016.4 |
| 20260502053051 | 11 | 0 | 0.0 | 3.2 | 0.00 | 0.00 | 0.00 | 41 | 1016.2 |
| 20260502051549 | 12 | 272 | 3.2 | 4.8 | 0.00 | 0.00 | 0.00 | 36 | 1016.3 |